Location: Casco Volunteer Fire Department
(44.5576°N, 87.6146°W)
Time: 06:13:00
(UTC+00:00)

Cosmos 1934 Rocket - Pass Details

Date: 22 January 2026
Orbit: 937 x 998 km, 83.0° (Epoch: 7 February)

Event Time Altitude Azimuth Distance (km) Brightness Sun altitude
Rises 23:37:11 0° 355° (N) 3,645 6.9 -9.3°
Reaches altitude 10° 23:39:45 10° 0° (N) 2,704 6.1 -9.7°
Maximum altitude 23:45:49 55° 78° (ENE) 1,160 4.1 -10.7°
Drops below altitude 10° 23:51:56 10° 155° (SSE) 2,728 6.3 -11.8°
Sets 23:54:31 0° 160° (SSE) 3,680 7.0 -12.2°
